When you browse on this site, cookies collect data to enhance your experience and personalize the content and advertising you see.
Visit our Privacy Policy to learn more. By continuing to use the site, you agree to this use of cookies and data.
  • en France
  • Liste des pays
  • À 7 jours
  • Température de l'eau
  • Carte météo
  • Widgets météo
  • user-avatar
    Se connecter

    Météo par heure à Cairo

    Ce jour, 21 Août, Mercredi

    Heure Température Précipitation Vent Pression Humidité
    00:00 +27°C° 0 mm 3 m/s 755 mmHg 76%
    01:00 +26°C° 0 mm 3 m/s 755 mmHg 79%
    02:00 +26°C° 0 mm 3 m/s 755 mmHg 82%
    03:00 +25°C° 0 mm 3 m/s 754 mmHg 83%
    04:00 +25°C° 0 mm 3 m/s 754 mmHg 85%
    05:00 +24°C° 0 mm 3 m/s 754 mmHg 87%
    06:00 +26°C° 0 mm 3 m/s 754 mmHg 80%
    07:00 +27°C° 0 mm 3 m/s 755 mmHg 74%
    08:00 +28°C° 0 mm 3 m/s 755 mmHg 67%
    09:00 +30°C° 0 mm 3 m/s 755 mmHg 56%
    10:00 +34°C° 0 mm 3 m/s 755 mmHg 44%
    11:00 +36°C° 0 mm 3 m/s 755 mmHg 33%
    12:00 +37°C° 0 mm 3 m/s 754 mmHg 28%
    13:00 +39°C° 0 mm 2 m/s 754 mmHg 24%
    14:00 +40°C° 0 mm 2 m/s 753 mmHg 19%
    15:00 +40°C° 0 mm 3 m/s 753 mmHg 19%
    16:00 +41°C° 0 mm 4 m/s 753 mmHg 19%
    17:00 +41°C° 0 mm 5 m/s 753 mmHg 18%
    18:00 +38°C° 0 mm 6 m/s 753 mmHg 26%
    19:00 +34°C° 0 mm 6 m/s 753 mmHg 35%
    20:00 +30°C° 0 mm 7 m/s 754 mmHg 43%
    21:00 +29°C° 0 mm 6 m/s 754 mmHg 51%
    22:00 +28°C° 0 mm 5 m/s 754 mmHg 58%
    23:00 +26°C° 0 mm 5 m/s 754 mmHg 66%

    Demain, 22 Août, Jeudi

    Heure Température Précipitation Vent Pression Humidité
    00:00 +26°C° 0 mm 4 m/s 754 mmHg 70%
    01:00 +25°C° 0 mm 4 m/s 754 mmHg 74%
    02:00 +25°C° 0 mm 4 m/s 754 mmHg 79%
    03:00 +23°C° 0 mm 4 m/s 754 mmHg 81%
    04:00 +23°C° 0 mm 4 m/s 754 mmHg 83%
    05:00 +22°C° 0 mm 4 m/s 753 mmHg 84%
    06:00 +25°C° 0 mm 4 m/s 754 mmHg 77%
    07:00 +26°C° 0 mm 4 m/s 754 mmHg 69%
    08:00 +28°C° 0 mm 4 m/s 754 mmHg 62%
    09:00 +30°C° 0 mm 4 m/s 754 mmHg 51%
    10:00 +34°C° 0 mm 4 m/s 753 mmHg 39%
    11:00 +36°C° 0 mm 5 m/s 753 mmHg 28%
    12:00 +38°C° 0 mm 4 m/s 753 mmHg 24%
    13:00 +40°C° 0 mm 4 m/s 753 mmHg 20%
    14:00 +42°C° 0 mm 4 m/s 752 mmHg 16%
    15:00 +42°C° 0 mm 5 m/s 752 mmHg 17%
    16:00 +42°C° 0 mm 6 m/s 752 mmHg 18%
    17:00 +41°C° 0 mm 8 m/s 751 mmHg 18%
    18:00 +38°C° 0 mm 8 m/s 752 mmHg 28%
    19:00 +34°C° 0 mm 7 m/s 752 mmHg 37%
    20:00 +30°C° 0 mm 7 m/s 753 mmHg 46%
    21:00 +28°C° 0 mm 6 m/s 753 mmHg 56%
    22:00 +27°C° 0 mm 5 m/s 753 mmHg 66%
    23:00 +26°C° 0 mm 4 m/s 754 mmHg 76%

    Après-demain, 23 Août, Vendredi

    Heure Température Précipitation Vent Pression Humidité
    00:00 +25°C° 0 mm 4 m/s 753 mmHg 80%
    01:00 +25°C° 0 mm 4 m/s 753 mmHg 84%
    02:00 +24°C° 0 mm 3 m/s 752 mmHg 89%
    03:00 +24°C° 0 mm 3 m/s 752 mmHg 90%
    04:00 +24°C° 0 mm 3 m/s 752 mmHg 90%
    05:00 +24°C° 0 mm 3 m/s 752 mmHg 91%
    06:00 +25°C° 0 mm 3 m/s 752 mmHg 85%
    07:00 +26°C° 0 mm 4 m/s 752 mmHg 79%
    08:00 +27°C° 0 mm 4 m/s 752 mmHg 72%
    09:00 +30°C° 0 mm 4 m/s 752 mmHg 58%
    10:00 +34°C° 0 mm 4 m/s 752 mmHg 45%
    11:00 +36°C° 0 mm 4 m/s 752 mmHg 31%
    12:00 +38°C° 0 mm 4 m/s 752 mmHg 26%
    13:00 +40°C° 0 mm 3 m/s 751 mmHg 22%
    14:00 +42°C° 0 mm 3 m/s 751 mmHg 18%
    15:00 +42°C° 0 mm 5 m/s 751 mmHg 18%
    16:00 +42°C° 0 mm 6 m/s 750 mmHg 18%
    17:00 +43°C° 0 mm 7 m/s 750 mmHg 19%
    18:00 +39°C° 0 mm 7 m/s 751 mmHg 28%
    19:00 +35°C° 0 mm 7 m/s 751 mmHg 38%
    20:00 +32°C° 0 mm 6 m/s 752 mmHg 47%
    21:00 +29°C° 0 mm 5 m/s 752 mmHg 58%
    22:00 +28°C° 0 mm 4 m/s 752 mmHg 69%
    23:00 +27°C° 0 mm 4 m/s 752 mmHg 79%

    24 Août, Samedi

    Heure Température Précipitation Vent Pression Humidité
    00:00 +26°C° 0 mm 3 m/s 752 mmHg 82%
    01:00 +26°C° 0 mm 3 m/s 751 mmHg 85%
    02:00 +25°C° 0 mm 3 m/s 751 mmHg 88%
    03:00 +25°C° 0 mm 3 m/s 751 mmHg 89%
    04:00 +25°C° 0 mm 3 m/s 751 mmHg 90%
    05:00 +25°C° 0 mm 2 m/s 751 mmHg 91%
    06:00 +26°C° 0 mm 3 m/s 752 mmHg 84%
    07:00 +27°C° 0 mm 3 m/s 752 mmHg 77%
    08:00 +28°C° 0 mm 3 m/s 752 mmHg 70%
    09:00 +31°C° 0 mm 3 m/s 752 mmHg 58%
    10:00 +34°C° 0 mm 3 m/s 752 mmHg 45%
    11:00 +37°C° 0 mm 2 m/s 752 mmHg 32%
    12:00 +38°C° 0 mm 2 m/s 752 mmHg 28%
    13:00 +40°C° 0 mm 2 m/s 751 mmHg 24%
    14:00 +41°C° 0 mm 2 m/s 751 mmHg 20%
    15:00 +41°C° 0 mm 2 m/s 751 mmHg 19%
    16:00 +42°C° 0 mm 2 m/s 751 mmHg 18%
    17:00 +42°C° 0 mm 2 m/s 750 mmHg 17%
    18:00 +40°C° 0 mm 4 m/s 751 mmHg 25%
    19:00 +36°C° 0 mm 5 m/s 751 mmHg 34%
    20:00 +33°C° 0 mm 6 m/s 752 mmHg 43%
    21:00 +32°C° 0 mm 6 m/s 752 mmHg 52%
    22:00 +29°C° 0 mm 5 m/s 752 mmHg 62%
    23:00 +28°C° 0 mm 4 m/s 752 mmHg 72%

    25 Août, Dimanche

    Heure Température Précipitation Vent Pression Humidité
    00:00 +27°C° 0 mm 3 m/s 752 mmHg 75%
    01:00 +27°C° 0 mm 3 m/s 752 mmHg 78%
    02:00 +26°C° 0 mm 2 m/s 752 mmHg 81%
    03:00 +26°C° 0 mm 2 m/s 752 mmHg 82%
    04:00 +26°C° 0 mm 2 m/s 752 mmHg 82%
    05:00 +25°C° 0 mm 2 m/s 752 mmHg 83%
    06:00 +27°C° 0 mm 2 m/s 752 mmHg 74%
    07:00 +28°C° 0 mm 2 m/s 753 mmHg 66%
    08:00 +30°C° 0 mm 2 m/s 753 mmHg 57%
    09:00 +32°C° 0 mm 2 m/s 753 mmHg 47%
    10:00 +36°C° 0 mm 2 m/s 753 mmHg 36%
    11:00 +38°C° 0 mm 2 m/s 753 mmHg 26%
    12:00 +39°C° 0 mm 2 m/s 752 mmHg 22%
    13:00 +41°C° 0 mm 2 m/s 752 mmHg 18%
    14:00 +42°C° 0 mm 2 m/s 752 mmHg 14%
    15:00 +43°C° 0 mm 3 m/s 751 mmHg 14%
    16:00 +43°C° 0 mm 4 m/s 751 mmHg 14%
    17:00 +43°C° 0 mm 4 m/s 751 mmHg 15%
    18:00 +40°C° 0 mm 5 m/s 752 mmHg 26%
    19:00 +36°C° 0 mm 6 m/s 752 mmHg 38%
    20:00 +33°C° 0 mm 6 m/s 753 mmHg 50%
    21:00 +30°C° 0 mm 5 m/s 753 mmHg 57%
    22:00 +29°C° 0 mm 5 m/s 753 mmHg 63%
    23:00 +28°C° 0 mm 4 m/s 753 mmHg 70%

    26 Août, Lundi

    Heure Température Précipitation Vent Pression Humidité
    00:00 +28°C° 0 mm 4 m/s 753 mmHg 72%
    01:00 +27°C° 0 mm 3 m/s 753 mmHg 73%
    02:00 +27°C° 0 mm 3 m/s 752 mmHg 75%
    03:00 +27°C° 0 mm 3 m/s 753 mmHg 74%
    04:00 +27°C° 0 mm 3 m/s 753 mmHg 74%
    05:00 +27°C° 0 mm 3 m/s 753 mmHg 73%
    06:00 +28°C° 0 mm 3 m/s 753 mmHg 67%
    07:00 +29°C° 0 mm 3 m/s 753 mmHg 61%
    08:00 +31°C° 0 mm 3 m/s 753 mmHg 54%
    09:00 +34°C° 0 mm 3 m/s 753 mmHg 45%
    10:00 +36°C° 0 mm 3 m/s 753 mmHg 35%
    11:00 +38°C° 0 mm 3 m/s 753 mmHg 26%
    12:00 +40°C° 0 mm 3 m/s 753 mmHg 22%
    13:00 +41°C° 0 mm 2 m/s 752 mmHg 19%
    14:00 +42°C° 0 mm 2 m/s 752 mmHg 16%
    15:00 +43°C° 0 mm 3 m/s 752 mmHg 16%
    16:00 +43°C° 0 mm 4 m/s 752 mmHg 16%
    17:00 +43°C° 0 mm 4 m/s 752 mmHg 17%
    18:00 +40°C° 0 mm 5 m/s 752 mmHg 27%
    19:00 +36°C° 0 mm 5 m/s 753 mmHg 37%
    20:00 +33°C° 0 mm 6 m/s 753 mmHg 47%
    21:00 +32°C° 0 mm 5 m/s 754 mmHg 55%
    22:00 +29°C° 0 mm 4 m/s 754 mmHg 62%
    23:00 +28°C° 0 mm 3 m/s 754 mmHg 70%
    Voir plus